Location: Newark
(41.3147°N, 3.1384°W)
Time: 00:57:59
(UTC+00:00)

Envisat - Visible Passes

Search period start: 14 October 2019 00:00
Search period end: 24 October 2019 00:00
Orbit: 764 x 766 km, 98.1° (Epoch: 13 October)

Date Brightness Start Highest point End Pass type
(mag) Time Alt. Az. Time Alt. Az. Time Alt. Az.
14 Oct 3.1 17:53:20 10° SSE 17:58:15 53° ENE 18:03:12 10° N visible
14 Oct 5.8 19:34:12 10° SW 19:37:35 18° W 19:41:00 10° NW visible
15 Oct 4.5 18:55:49 10° SSW 19:00:32 39° W 19:05:19 10° NNW visible
16 Oct 3.0 18:18:37 10° SSE 18:23:42 88° WSW 18:28:49 10° NNW visible
17 Oct 5.4 19:22:17 10° SW 19:26:13 23° W 19:30:12 10° NW visible
18 Oct 6.3 05:52:34 10° ENE 05:55:18 14° E 05:58:01 10° ESE visible
18 Oct 4.0 18:44:20 10° S 18:49:15 50° W 18:54:11 10° NNW visible
19 Oct 2.9 18:07:24 10° SSE 18:12:27 74° ENE 18:17:32 10° N visible
19 Oct 6.1 19:49:51 10° WSW 19:52:00 13° W 19:54:09 10° WNW visible
20 Oct 5.1 19:10:32 10° SSW 19:14:52 28° W 19:19:15 10° NW visible
21 Oct 6.7 05:42:30 10° ENE 05:43:54 11° E 05:45:18 10° ESE visible
21 Oct 3.5 18:32:55 10° S 18:37:57 64° W 18:43:00 10° NNW visible
22 Oct 3.0 17:56:15 10° SSE 18:01:13 58° ENE 18:06:13 10° N visible
22 Oct 5.9 19:37:30 10° SW 19:40:37 16° W 19:43:44 10° NW visible
23 Oct 4.6 18:58:54 10° SSW 19:03:32 36° W 19:08:12 10° NNW visible
